Погода в Турке

Украина / Львовская область     49°09′26″N   23°01′20″E
темп.,
°C
ветер,
м/с
пор.,
м/с
влажн.,
%
обл.,
%
осадки,
мм/ч
давл.,
гПа
погр.,
м
4 марта, чт
чт423:00+1ююз399310 0.0 1025213
02:00+2ююз516905 0.0 1023482
05:00+3ююз5148524 0.0 1020398
08:00+1ююз4119229 0.0 1019248
11:00+6юз5107462 0.0 1017424
14:00+8юз596731 0.0 1015603
17:00+6юз497754 0.0 1014437
20:00+4юз398877 0.0 1014311
5 марта, пт
пт523:00+4юз2894100 1.2 1013380
02:00+3ююз2496100 2.9 1012180
05:00+3сз1197100 0.8 101229
08:000с3798100 6.5 1012404
11:00−1с2497100 3.8 1014354
14:00−1ссв5897100 6.7 1016522
17:00−2ссв5897100 3.1 1018573
20:00−4с3991100 3.8 1021457
6 марта, сб
сб623:00−8с239167 0.0 102432
02:00−9сз128833 0.0 102721
05:00−9з12870 0.0 102721
08:00−7з12931 0.0 1029100
11:00−3ссз467951 0.3 10311147
14:00−2сз466975 0.6 10311435
17:00−3сз3577100 0.3 10311055
20:00−7зюз118784 0.3 103221
7 марта, вс
вс723:00−8ююз22860 0.0 103223
02:00−8ююз22860 0.0 103142
05:00−7юз412830 0.0 1029362
08:00−5юз615770 0.0 1028492
11:00−1юз611670 0.0 1025825
14:000юз611670 0.0 1023832
17:00−1юз612711 0.0 1020649
20:00−3юз614740 0.0 1020449
8 марта, пн
пн823:00−3юз5127710 0.0 1020341
02:00−4юз39816 0.0 1019215
05:00−5ююз248657 0.0 101877
08:00−4ююз248678 0.0 1018116
11:000зюз357287 0.0 1017985
14:00+1зсз467493 0.1 10171106
17:00−1зсз488399 0.2 1016806
20:00−3з259896 0.5 1019287